Regional Weather Roundup
Issued by NWS Sioux Falls, SD

Home | Current Version | Previous Version | Graphics & Text | Print | Product List | Glossary On
Versions: 1 2 3 4 5 6 7 8 9 10 11 12 13 14 15 16 17 18 19 20 21 22 23 24 25 26 27 28 29 30 31 32 33 34 35 36 37 38 39 40 41 42 43 44 45 46 47 48 49 50
000
ASUS43 KFSD 250810
RWRFSD

WEATHER ROUNDUP FOR SE SOUTH DAKOTA/SW MINNESOTA/NW IOWA
NATIONAL WEATHER SERVICE SIOUX FALLS SD
300 AM CDT SUN SEP 25 2016

NOTE: "FAIR" INDICATES FEW OR NO CLOUDS BELOW 12,000 FEET WITH NO
SIGNIFICANT WEATHER AND OR OBSTRUCTIONS TO VISIBILITY.


SDZ038>040-050-052>070-250900-
SOUTHEAST SOUTH DAKOTA

CITY           SKY/WX    TMP DP  RH WIND       PRES   REMARKS
BROOKINGS      PTCLDY    54  47  77 W7        29.94R
CHAMBERLAIN    PTCLDY    56  46  68 W14G21    29.99S
HURON          CLEAR     54  43  66 SW10      29.92S
MADISON        FAIR      54  50  87 W9        29.97R
MITCHELL       CLEAR     55  44  66 W10       29.97R
SIOUX FALLS    MOCLDY    58  48  69 W10       29.96R
WINNER         PTSUNNY   57  44  62 W18G28    30.03R
YANKTON        CLEAR     55  46  71 W8        29.99R
$$

MNZ071-072-080-081-089-090-097-098-250900-
SOUTHWEST MINNESOTA

CITY           SKY/WX    TMP DP  RH WIND       PRES   REMARKS
FAIRMONT       CLOUDY    67  65  93 S10       29.94F
JACKSON        CLOUDY    68  64  88 S7        29.94F
LUVERNE        CLOUDY    59  50  72 W15       29.96R
MARSHALL       CLOUDY    68  66  93 SW9       29.89R
MONTEVIDEO     CLOUDY    66  66 100 SW7       29.88R
PIPESTONE      CLOUDY    61  46  59 NW17G25   29.95R
REDWOOD FALLS  LGT RAIN  69  66  90 S10       29.88S
TRACY          DRIZZLE   69  67  95 S9        29.89F
WINDOM         LGT RAIN  68  66  94 S12       29.93R
WORTHINGTON    LGT RAIN  66  63  90 S6        29.93F
$$

IAZ001>003-012>014-020>022-031-032-NEZ013-014-SDZ071-250900-
NORTHWEST IOWA

CITY           SKY/WX    TMP DP  RH WIND       PRES   REMARKS
CHEROKEE       RAIN      65  65 100 CALM      29.95F
DENISON        LGT RAIN  68  68 100 S8        29.94S
ESTHERVILLE    CLOUDY    66  66 100 S10       29.94F
LE MARS        MOCLDY    64  55  72 NW13G23   29.98R
ORANGE CITY    MOCLDY    66  64  94 SW14G21   29.96R
SHELDON        CLOUDY    64  64 100 S5        29.93R
SIOUX CITY     CLOUDY    68  65  90 NW17      29.96R
SPENCER        LGT RAIN  64  63  96 W12       29.95R FOG
STORM LAKE     LGT RAIN  66  66 100 S6        29.96F
$$

ABBREVIATIONS USED IN REMARKS
   TC - TEMPERATURE IN CELSIUS
  WCI - WIND CHILL INDEX
   HX - HEAT INDEX
  VSB - VISIBILITY




USA.gov is the U.S. government's official web portal to all federal, state and local government web resources and services.